TimeCST,TemperatureF,Dew PointF,Humidity,Sea Level PressureIn,VisibilityMPH,Wind Direction,Wind SpeedMPH,Gust SpeedMPH,PrecipitationIn,Events,Conditions,WindDirDegrees,DateUTC
2:45 AM,55,27,22,29.96,6,NE,2.2,,,,Partly Cloudy,40,2013-03-05 08:45:00
5:45 AM,51,28,29,30.04,6,NE,4.5,,,,Partly Cloudy,50,2013-03-05 11:45:00
6:14 AM,48.2,28.4,46,29.98,8.0,NNW,4.6,-,N/A,,Clear,340,2013-03-05 12:14:00
6:55 AM,46.4,30.2,53,30.25,7.0,North,9.2,-,N/A,,Clear,10,2013-03-05 12:55:00
7:46 AM,51.8,30.2,44,30.28,7.0,North,6.9,-,N/A,,Clear,350,2013-03-05 13:46:00
8:41 AM,59.0,28.4,31,30.01,7.0,North,8.1,-,N/A,,Clear,360,2013-03-05 14:41:00
8:45 AM,60,31,22,30.14,11,NNE,4.5,,,,Partly Cloudy,20,2013-03-05 14:45:00
9:43 AM,68.0,30.2,24,30.28,7.0,Calm,Calm,-,N/A,,Clear,0,2013-03-05 15:43:00
10:43 AM,73.4,30.2,20,30.26,10.0,South,4.6,-,N/A,,Clear,170,2013-03-05 16:43:00
11:44 AM,78.8,24.8,14,29.89,10.0,NNW,3.5,-,N/A,,Clear,330,2013-03-05 17:44:00
11:45 AM,82,33,9,30.05,9,NE,2.2,,,,Partly Cloudy,40,2013-03-05 17:45:00
12:41 PM,82.4,23.0,11,30.17,10.0,SE,5.8,-,N/A,,Clear,140,2013-03-05 18:41:00
1:42 PM,84.2,23.0,11,30.13,15.0,West,6.9,-,N/A,,Partly Cloudy,280,2013-03-05 19:42:00
2:45 PM,86.0,23.0,10,29.77,15.0,SSE,8.1,-,N/A,,Scattered Clouds,160,2013-03-05 20:45:00
2:50 PM,91,30,5,29.83,9,SW,4.5,,,,Partly Cloudy,220,2013-03-05 20:50:00
3:45 PM,87.8,23.0,9,30.08,15.0,SW,4.6,-,N/A,,Scattered Clouds,220,2013-03-05 21:45:00
4:50 PM,86.0,23.0,10,30.08,10.0,WNW,5.8,-,N/A,,Mostly Cloudy,290,2013-03-05 22:50:00
5:47 PM,82.4,23.0,11,29.87,10.0,NNE,17.3,-,N/A,,Mostly Cloudy,20,2013-03-05 23:47:00
5:50 PM,81,22,5,29.78,9,NE,13.4,,,,Partly Cloudy,40,2013-03-05 23:50:00
6:48 PM,78.8,15.8,9,30.16,8.0,NNE,17.3,-,N/A,,Mostly Cloudy,30,2013-03-06 00:48:00
7:45 PM,77.0,8.6,7,30.19,8.0,NNE,19.6,-,N/A,,Mostly Cloudy,20,2013-03-06 01:45:00
8:45 PM,73,10,4,29.83,6,East,4.5,,,,Clear,80,2013-03-06 02:45:00
8:46 PM,73.4,8.6,8,29.92,8.0,NNE,9.2,-,N/A,,Scattered Clouds,30,2013-03-06 02:46:00
9:45 PM,71.6,-0.4,6,30.27,8.0,NE,6.9,-,N/A,,Clear,50,2013-03-06 03:45:00
10:23 PM,71.6,3.2,7,30.28,8.0,NE,6.9,25.3,N/A,,Clear,40,2013-03-06 04:23:00
10:45 PM,69.8,5.0,8,30.27,8.0,NNE,21.9,-,N/A,,Clear,30,2013-03-06 04:45:00
11:45 PM,68,4,4,29.92,6,East,4.5,,,,Clear,100,2013-03-06 05:45:00